Location: Czekanka
(50.4925°N, 19.2643°E)
Time: 12:48:21
(UTC+00:00)

Cosmos 494 Rocket - Pass Details

Date: 15 June 2024
Orbit: 739 x 769 km, 74.1° (Epoch: 15 July)

Event Time Altitude Azimuth Distance (km) Brightness Sun altitude
Rises 00:39:30 0° 337° (NNW) 3,232 7.9 -11.9°
Reaches altitude 10° 00:41:54 10° 340° (NNW) 2,306 7.1 -11.7°
Maximum altitude 00:47:06 65° 63° (ENE) 844 4.5 -11.3°
Drops below altitude 10° 00:52:18 10° 145° (SE) 2,304 6.2 -10.9°
Sets 00:54:42 0° 148° (SSE) 3,228 7.0 -10.7°
